sat.trackr.live / text

‹ back to catalog

STARLINK-31792

NORAD 60132 · 2024-118V

PAYLOAD ACTIVE UNKNOWN

§ Identity

Operator
Country
US
Launch date
2024-06-24
Launch site
AFWTR
Launch vehicle
Mass (kg)
RCS (m²)

Purposes: comms

External: N2YO · Heavens-Above · Gunter

§ Orbital elements

Epoch: 2026-09-21T12:03:36.876096Z

Period
93.85 min
Inclination
53.1611°
Eccentricity
0.0001288
Mean motion
15.34391202 rev/d
Perigee alt
461.8 km
Apogee alt
463.6 km
Semi-major
6,840.9 km
B*
-3.7637e-6
RAAN
193.0660°
Arg perigee
76.6627°
Mean anomaly
283.4519°
Rev number
12,573

§ Raw data

STARLINK-317921 60132U 24118V   26264.50251014 -.00000503  00000+0 -37637-5 0  99962 60132  53.1611 193.0660 0001288  76.6627 283.4519 15.34391202125739

JSON: /api/v1/satellites/60132 · /tle

For live sub-satellite position, see the globe view (requires WebGL).

§ Visibility from observer

Set your observer location to see the next 7 days of passes ≥ 10°. The values pass through the URL so the page stays shareable.

No JS? Fill the form by hand. The geolocation button needs JavaScript.